Mountain Home, AR

11:02 AM CDT on October 19, 2019 (GMT -0500)
Baxter County Regional

Weather History for KBPK - August, 2019

Change the Weather History Date:

Friday, August 9, 2019

  Actual Average (WUND) Record (WUND)
Temperature  
Mean Temperature 76 °F -  
Max Temperature 82 °F - - (-1)
Min Temperature 69 °F - - (-1)
Cooling Degree Days 10    
Growing Degree Days 26 (Base 50)    
Moisture  
Dew Point 73 °F    
Average Humidity 94    
Maximum Humidity 100    
Minimum Humidity 76    
Precipitation  
Precipitation 1.05 in - - ()
Sea Level Pressure  
Sea Level Pressure 29.95 in    
Wind  
Wind Speed 2 mph (SSE)    
Max Wind Speed 7 mph    
Max Gust Speed -    
Visibility 8 miles    
Events Rain , Thunderstorm    
Averages and records for this station are not official NWS values.
T = Trace of Precipitation, MM = Missing Value Source: NWS Daily Summary

Daily Weather History Graph

Daily Weather History Graph

Search for Another Location

Airport or City:

Astronomy

Aug. 09, 2019 Rise Set
Actual Time 6:22 AM CDT 8:07 PM CDT
Civil Twilight 5:54 AM CDT 8:35 PM CDT
Nautical Twilight 5:21 AM CDT 9:08 PM CDT
Astronomical Twilight 4:45 AM CDT 9:44 PM CDT
Moon 3:47 PM CDT (8/9) 1:21 AM CDT (8/9)
Length of Visible Light 14h 40m
Length of Day
13h 44m
Waxing Gibbous, 70% of the Moon is Illuminated
Aug 9
Waxing Gibbous
Aug 15
Full
Aug 23
Last Quarter
Aug 30
New
Sep 5
First Quarter

Hourly Weather History & Observations

Time (CDT) Temp. Heat Index Dew Point Humidity Pressure Visibility Wind Dir Wind Speed Gust Speed Precip Events Conditions
12:50 AM 69.8 °F - 69.8 °F 100% 29.99 in 1.0 mi North 4.6 mph - 0.76 in Rain , Thunderstorm Heavy Rain
12:53 AM 69.1 °F - 69.1 °F 100% 29.96 in 1.0 mi Variable 4.6 mph - 0.84 in Rain , Thunderstorm Heavy Rain
12:59 AM 69.1 °F - 69.1 °F 100% 29.97 in 1.5 mi Variable 5.8 mph - 0.06 in Rain Heavy Rain
1:04 AM 69.1 °F - 69.1 °F 100% 29.96 in 3.0 mi East 6.9 mph - 0.07 in Rain Rain
1:18 AM 70.0 °F - 70.0 °F 100% 29.97 in 2.5 mi Calm Calm - 0.14 in Rain Heavy Rain
1:25 AM 70.0 °F - 70.0 °F 100% 29.97 in 3.0 mi East 3.5 mph - 0.17 in Rain Heavy Rain
1:33 AM 70.0 °F - 70.0 °F 100% 29.97 in 6.0 mi ESE 4.6 mph - 0.18 in Rain Light Rain
1:53 AM 70.0 °F - 70.0 °F 100% 29.95 in 8.0 mi ESE 5.8 mph - 0.20 in Rain Light Rain
2:38 AM 70.0 °F - 70.0 °F 100% 29.96 in 10.0 mi South 4.6 mph - 0.01 in   Overcast
2:53 AM 70.0 °F - 70.0 °F 100% 29.93 in 10.0 mi South 4.6 mph - 0.01 in   Overcast
3:53 AM 71.1 °F - 71.1 °F 100% 29.91 in 10.0 mi Calm Calm - N/A   Overcast
4:10 AM 71.1 °F - 71.1 °F 100% 29.94 in 9.0 mi Calm Calm - N/A   Overcast
4:36 AM 71.1 °F - 71.1 °F 100% 29.94 in 10.0 mi Calm Calm - N/A   Overcast
4:53 AM 71.1 °F - 71.1 °F 100% 29.92 in 10.0 mi Calm Calm - N/A   Overcast
5:49 AM 71.6 °F - 71.6 °F 100% 29.95 in 10.0 mi Calm Calm - N/A   Overcast
5:53 AM 71.1 °F - 71.1 °F 100% 29.93 in 10.0 mi Calm Calm - N/A   Overcast
6:10 AM 71.1 °F - 71.1 °F 100% 29.97 in 9.0 mi Calm Calm - N/A   Overcast
6:45 AM 71.1 °F - 71.1 °F 100% 29.95 in 8.0 mi Calm Calm - N/A   Mostly Cloudy
6:53 AM 71.1 °F - 71.1 °F 100% 29.93 in 8.0 mi Calm Calm - N/A   Mostly Cloudy
7:26 AM 71.1 °F - 71.1 °F 100% 29.96 in 4.0 mi Calm Calm - N/A   Scattered Clouds
7:36 AM 72.0 °F - 72.0 °F 100% 29.96 in 3.0 mi Calm Calm - N/A   Mostly Cloudy
7:53 AM 73.0 °F - 72.0 °F 96% 29.94 in 7.0 mi Calm Calm - N/A   Overcast
8:13 AM 73.0 °F - 72.0 °F 96% 29.97 in 10.0 mi Calm Calm - N/A   Overcast
8:42 AM 75.0 °F - 73.0 °F 94% 29.98 in 10.0 mi Calm Calm - N/A   Overcast
8:53 AM 73.9 °F - 72.0 °F 93% 29.96 in 10.0 mi Calm Calm - N/A   Overcast
9:53 AM 73.9 °F - 73.0 °F 97% 29.96 in 10.0 mi Calm Calm - N/A   Overcast
10:46 AM 75.0 °F - 73.0 °F 94% 30.00 in 10.0 mi Calm Calm - N/A   Overcast
10:53 AM 75.0 °F - 73.0 °F 94% 29.98 in 10.0 mi Calm Calm - N/A   Overcast
12:43 PM 77.0 °F - 73.9 °F 90% 30.00 in 10.0 mi WSW 3.5 mph - N/A   Overcast
12:53 PM 78.1 °F - 73.9 °F 87% 29.98 in 10.0 mi West 4.6 mph - N/A   Overcast
1:53 PM 79.0 °F - 75.0 °F 88% 29.95 in 10.0 mi West 3.5 mph - N/A   Overcast
2:53 PM 82.0 °F 87.9 °F 73.9 °F 76% 29.94 in 10.0 mi Calm Calm - N/A   Scattered Clouds
3:03 PM 81.0 °F 86.7 °F 75.0 °F 82% 29.97 in 10.0 mi Calm Calm - N/A   Mostly Cloudy
3:37 PM 82.0 °F 88.6 °F 75.0 °F 79% 29.95 in 10.0 mi Calm Calm - N/A   Scattered Clouds
3:53 PM 82.0 °F 88.6 °F 75.0 °F 79% 29.92 in 10.0 mi Calm Calm - N/A   Mostly Cloudy
4:23 PM 82.0 °F 88.6 °F 75.0 °F 79% 29.93 in 10.0 mi Calm Calm - N/A   Scattered Clouds
4:53 PM 82.9 °F 90.2 °F 75.0 °F 77% 29.90 in 10.0 mi Calm Calm - N/A   Mostly Cloudy
5:32 PM 82.0 °F 88.6 °F 75.0 °F 79% 29.93 in 10.0 mi Calm Calm - N/A   Scattered Clouds
5:53 PM 81.0 °F 87.3 °F 75.9 °F 85% 29.90 in 10.0 mi Calm Calm - N/A   Scattered Clouds
6:25 PM 81.0 °F 87.3 °F 75.9 °F 85% 29.93 in 10.0 mi Calm Calm - N/A   Mostly Cloudy
6:53 PM 80.1 °F 85.1 °F 75.0 °F 85% 29.91 in 10.0 mi Calm Calm - N/A   Scattered Clouds
7:53 PM 79.0 °F - 75.9 °F 90% 29.91 in 10.0 mi Calm Calm - N/A   Clear
8:53 PM 75.9 °F - 75.9 °F 100% 29.92 in 10.0 mi Calm Calm - N/A   Clear
9:53 PM 75.0 °F - 75.0 °F 100% 29.94 in 10.0 mi Calm Calm - N/A   Clear
10:53 PM 75.0 °F - 75.0 °F 100% 29.95 in 10.0 mi Calm Calm - N/A   Clear
11:53 PM 73.9 °F - 73.9 °F 100% 29.95 in 10.0 mi Calm Calm - N/A   Clear